Regional Weather Roundup
Issued by NWS

Home | Current Version | Previous Version | Text Only | Print | Product List | Glossary Off
Versions: 1 2 3 4 5 6 7 8 9 10 11 12 13 14 15 16 17 18 19 20 21 22 23 24 25 26 27 28

000
ASUS45 KBOI 261710
RWRID

IDAHO REGIONAL WEATHER ROUNDUP
NATIONAL WEATHER SERVICE BOISE ID
1100 AM MDT TUE SEP 26 2017

NOTE: "FAIR" INDICATES FEW OR NO CLOUDS BELOW 12000 FEET
WITH NO SIGNIFICANT WEATHER AND/OR OBSTRUCTIONS TO VISIBILITY

IDZ012-014-261800-
SOUTHWEST IDAHO


CITY           SKY/WX    TMP DP  RH WIND       PRES   REMARKS
BOISE          SUNNY     61  38  42 SE5       30.19S
CALDWELL       NOT AVBL
MOUNTAIN HOME  SUNNY     57  35  42 SE7       30.20R
$$

IDZ016-017-261800-
SOUTHCENTRAL IDAHO


CITY           SKY/WX    TMP DP  RH WIND       PRES   REMARKS
BURLEY         SUNNY     51  39  63 SE5       30.22R
JEROME         SUNNY     55  39  54 S3        30.22S
TWIN FALLS     SUNNY     57  33  40 CALM      30.21S
$$

IDZ019>023-261800-
SOUTHEAST IDAHO


CITY           SKY/WX    TMP DP  RH WIND       PRES   REMARKS
IDAHO FALLS    CLOUDY    49  36  61 CALM      30.25R
POCATELLO      PTSUNNY   51  37  58 NW6       30.24R
REXBURG        CLOUDY    49  36  61 CALM      30.25R
$$

IDZ006-010-011-018-031-032-261800-
CENTRAL IDAHO MOUNTAINS


CITY           SKY/WX    TMP DP  RH WIND       PRES   REMARKS
MCCALL         MOSUNNY   52  40  63 VRB3      30.23R
HAILEY         MOSUNNY   54  34  47 NW6       30.26S
STANLEY          N/A     44  32  62 VRB3      30.29S
SALMON         CLOUDY    49  41  74 CALM      30.27S
CHALLIS        CLOUDY    46  38  73 CALM      30.28R
$$

IDZ002-004-006-007-026-261800-
NORTHERN IDAHO


CITY           SKY/WX    TMP DP  RH WIND       PRES   REMARKS
LEWISTON       SUNNY     60  50  69 NE3       30.21R
LOWELL           N/A     60  49  66 CALM      30.23F
COEUR D`ALENE  MOSUNNY   60  46  59 SE7       30.22R
MULLAN PASS    MOSUNNY   48  39  71 N5        30.27R
$$




USA.gov is the U.S. government's official web portal to all federal, state and local government web resources and services.